Data for 06/27/2018

Time Sea-Level Adjusted Pressure Absolute Pressure Temperature Relative Humidity Dew Point   
(mb) (inHg) (mb) (inHg) (C) (F) (%) (C) (F)
00:05 1020 30.12 849 25.07 13.3 56 57 5.1 41.1
00:10 1020 30.12 849 25.07 13 55.4 58 4.9 40.8
00:15 1020 30.12 849 25.07 13 55.3 57 4.8 40.7
00:20 1020 30.12 849 25.07 13 55.3 54 3.8 38.9
00:25 1020 30.12 849 25.07 13.2 55.8 51 3.4 38.1
00:30 1020 30.12 849 25.07 13.6 56.5 52 4.1 39.4
00:35 1020 30.12 849 25.07 13.4 56.1 53 4 39.3
00:40 1020 30.12 849 25.07 12.9 55.3 56 4.4 40
00:45 1020 30.12 849 25.07 12.4 54.3 59 4.5 40.2
00:50 1020 30.12 849 25.07 12 53.7 56 3.6 38.5
00:55 1020 30.12 849 25.07 12 53.6 58 4 39.1
01:00 1020 30.12 849 25.07 11.9 53.3 57 3.6 38.5
01:05 1020 30.12 849 25.07 11.8 53.3 57 3.5 38.3
01:10 1020 30.12 849 25.07 11.7 53 58 3.7 38.6
01:15 1020 30.12 849 25.07 11.5 52.7 56 3.1 37.6
01:20 1020 30.12 849 25.07 11.8 53.2 57 3.5 38.4
01:25 1020 30.12 849 25.07 11.7 53 57 3.5 38.4
01:30 1020 30.12 849 25.07 11.7 53 59 4 39.2
01:35 1020 30.12 849 25.07 11.5 52.6 60 4 39.3
01:40 1020 30.12 849 25.07 11.3 52.3 61 4.1 39.4
01:45 1020 30.12 849 25.07 11.1 52 60 3.6 38.5
01:50 1020 30.12 849 25.07 11.1 52 58 3.2 37.8
01:55 1020 30.12 849 25.07 11.1 52 58 3.3 37.9
02:00 1020 30.12 849 25.07 11.1 51.9 58 3.3 37.9
02:05 1020 30.12 849 25.07 11 51.8 58 3.2 37.7
02:10 1020 30.12 849 25.07 11 51.9 58 3 37.5
02:15 1020 30.12 849 25.07 11.2 52.1 58 3.2 37.7
02:20 1020 30.12 849 25.07 11.1 51.9 58 3.3 37.9
02:25 1020 30.12 849 25.07 10.9 51.5 59 3.2 37.7
02:30 1020 30.12 849 25.07 10.7 51.2 61 3.5 38.2
02:35 1020 30.12 849 25.07 10.4 50.6 62 3.4 38.1
02:40 1020 30.12 849 25.07 10.2 50.3 62 3.2 37.8
02:45 1020 30.12 849 25.07 10.1 50.2 62 3.3 37.9
02:50 1020 30.12 849 25.07 10 50.1 63 3.3 38
02:55 1020 30.12 849 25.07 9.9 49.8 64 3.4 38
03:00 1020 30.12 849 25.07 9.9 49.9 62 3.1 37.5
03:05 1020 30.12 849 25.07 10.1 50.2 61 2.9 37.3
03:10 1020 30.12 849 25.07 10.4 50.7 59 2.7 36.9
03:15 1020 30.12 849 25.07 10.7 51.2 59 3 37.3
03:20 1020 30.12 849 25.07 10.7 51.2 60 3.4 38.1
03:25 1020 30.12 849 25.07 10.4 50.7 62 3.4 38.1
03:30 1020 30.12 849 25.07 10.2 50.3 61 3 37.4
03:35 1020 30.12 849 25.07 10 50.1 61 2.9 37.3
03:40 1020 30.12 849 25.07 9.9 49.8 63 3.1 37.6
03:45 1020 30.12 849 25.07 9.8 49.6 62 2.9 37.3
03:50 1020 30.12 849 25.07 9.8 49.6 61 2.7 36.9
03:55 1020 30.12 849 25.07 9.8 49.6 62 2.9 37.3
04:00 1020 30.12 849 25.07 9.6 49.3 63 3.1 37.5
04:05 1020 30.12 849 25.07 9.7 49.4 61 2.6 36.6
04:10 1020 30.12 849 25.07 9.7 49.5 63 3 37.3
04:15 1020 30.12 849 25.07 9.5 49.1 64 3.1 37.7
04:20 1020 30.12 849 25.07 9.2 48.6 66 3.2 37.8
04:25 1020 30.12 849 25.07 9 48.1 67 3.2 37.8
04:30 1020 30.12 849 25.07 8.9 48 67 3.2 37.7
04:35 1020 30.12 849 25.07 8.8 47.9 66 3 37.3
04:40 1020 30.12 849 25.07 8.9 48 67 3.1 37.6
04:45 1020 30.12 849 25.07 8.9 48 65 2.8 37
04:50 1020 30.12 849 25.07 9 48.1 65 2.8 37.1
04:55 1020 30.12 849 25.07 8.9 48 64 2.5 36.5
05:00 1020 30.12 849 25.07 8.7 47.7 66 2.7 36.9
05:05 1020 30.12 849 25.07 8.4 47.2 67 2.6 36.7
05:10 1020 30.12 849 25.07 8.3 46.9 67 2.6 36.7
05:15 1020 30.12 849 25.07 8.2 46.8 68 2.6 36.7
05:20 1020 30.12 849 25.07 8.2 46.7 67 2.4 36.3
05:25 1020 30.12 849 25.07 8.2 46.7 67 2.5 36.4
05:30 1020 30.12 849 25.07 8 46.5 66 2.2 35.9
05:35 1020 30.12 849 25.07 7.9 46.1 67 2.1 35.8
05:40 1020 30.12 849 25.07 7.8 46 67 2.1 35.7
05:45 1020 30.12 849 25.07 8 46.3 66 1.9 35.5
05:50 1020 30.12 849 25.07 8.2 46.8 64 1.8 35.2
05:55 1020 30.12 849 25.07 8.4 47.2 63 1.7 35.1
06:00 1020 30.12 849 25.07 8.5 47.4 62 1.7 35.1
06:05 1020 30.12 849 25.07 8.4 47.1 62 1.6 34.8
06:10 1020 30.12 849 25.07 8.4 47.1 64 1.9 35.5
06:15 1020 30.12 849 25.07 8.3 46.9 64 1.9 35.4
06:20 1020 30.12 849 25.07 8.4 47.1 63 1.9 35.3
06:25 1020 30.12 849 25.07 8.3 47 64 1.9 35.5
06:30 1020 30.12 849 25.07 8.2 46.8 65 2 35.7
06:35 1020 30.12 849 25.07 8.4 47 64 2 35.6
06:40 1020 30.12 849 25.07 8.6 47.4 63 2 35.6
06:45 1020 30.12 849 25.07 8.8 47.8 61 1.8 35.2
06:50 1020 30.12 849 25.07 9.1 48.4 60 1.9 35.4
06:55 1020 30.12 849 25.07 9.5 49 58 1.7 35.1
07:00 1020 30.12 849 25.07 9.7 49.5 58 1.8 35.2
07:05 1020 30.12 849 25.07 10 50 57 1.9 35.4
07:10 1020 30.12 849 25.07 10.2 50.4 57 2.2 35.9
07:15 1020 30.12 849 25.07 10.4 50.7 57 2.2 36
07:20 1020 30.12 849 25.07 10.4 50.7 56 2.1 35.8
07:25 1020 30.12 849 25.07 10.5 50.9 57 2.3 36.1
07:30 1020 30.12 849 25.07 10.6 51.1 57 2.4 36.4
07:35 1020 30.12 849 25.07 10.9 51.6 55 2.2 35.9
07:40 1020 30.12 849 25.07 11.2 52.1 54 2.2 36
07:45 1020 30.12 849 25.07 11.6 52.9 54 2.6 36.7
07:50 1020 30.12 849 25.07 12.4 54.3 51 2.7 36.9
07:55 1020 30.12 849 25.07 12.7 54.8 50 2.7 36.8
08:00 1020 30.12 849 25.07 12.5 54.5 48 1.9 35.5
08:05 1020 30.12 849 25.07 12.8 55 47 1.8 35.2
08:10 1020 30.12 849 25.07 13.4 56.1 43 1.3 34.4
08:15 1020 30.12 849 25.07 13.7 56.7 44 1.8 35.3
08:20 1020 30.12 849 25.07 14.3 57.7 43 1.9 35.4
08:25 1020 30.12 849 25.07 14.4 57.8 46 3 37.5
08:30 1020 30.12 849 25.07 14.3 57.8 45 2.5 36.5
08:35 1020 30.12 849 25.07 14.8 58.7 43 2.6 36.6
08:40 1020 30.12 849 25.07 15.6 60 40 2.1 35.8
08:45 1020 30.12 849 25.07 15.8 60.4 39 1.8 35.2
08:50 1020 30.12 849 25.07 15.6 60.1 38 1.3 34.4
08:55 1020 30.12 849 25.07 15.2 59.3 39 1.3 34.4
09:00 1020 30.12 849 25.07 15.6 60.1 36 0.5 32.9
09:05 1020 30.12 849 25.07 16.1 60.9 38 1.7 35.1
09:10 1020 30.12 849 25.07 16.1 61 39 2.2 35.9
09:15 1020 30.12 849 25.07 16.1 61 37 1.6 34.8
09:20 1020 30.12 849 25.07 16.7 62 37 2 35.6
09:25 1020 30.12 849 25.07 17.1 62.8 36 1.9 35.5
09:30 1020 30.12 849 25.07 16.9 62.5 34 1.3 34.3
09:35 1020 30.12 849 25.07 17.8 64.1 31 0.6 33
09:40 1019 30.09 849 25.07 18.3 64.9 29 0.2 32.3
09:45 1019 30.09 849 25.07 18.1 64.5 30 0.2 32.4
09:50 1019 30.09 849 25.07 18.4 65 30 0.4 32.8
09:55 1019 30.09 848 25.04 18.2 64.8 29 0.1 32.2
10:00 1019 30.09 848 25.04 18 64.4 32 1 33.9
10:05 1019 30.09 848 25.04 18.6 65.5 30 0.9 33.6
10:10 1019 30.09 848 25.04 18.7 65.6 31 1.6 34.9
10:15 1019 30.09 848 25.04 18.7 65.6 31 1.5 34.6
10:20 1019 30.09 848 25.04 18 64.3 33 1.6 34.8
10:25 1019 30.09 848 25.04 17.4 63.3 33 1.2 34.2
10:30 1019 30.09 848 25.04 18.6 65.6 32 1.6 35
10:35 1019 30.09 848 25.04 19.4 66.9 30 1.7 35.1
10:40 1019 30.09 848 25.04 19.5 67.2 30 1.5 34.7
10:45 1019 30.09 848 25.04 19.2 66.5 33 2.5 36.6
10:50 1019 30.09 848 25.04 18.9 66.1 30 1.2 34.1
10:55 1019 30.09 848 25.04 18.6 65.5 30 0.8 33.5
11:00 1019 30.09 848 25.04 18.9 66 28 0.1 32.2
11:05 1019 30.09 848 25.04 19 66.1 28 0.1 32.1
11:10 1019 30.09 848 25.04 19.9 67.7 28 1 33.8
11:15 1019 30.09 848 25.04 20.3 68.5 27 0.8 33.4
11:20 1018 30.06 848 25.04 20.4 68.7 26 0.6 33
11:25 1018 30.06 848 25.04 19.9 67.9 27 0.6 33
11:30 1018 30.06 848 25.04 20 67.9 27 0.3 32.6
11:35 1018 30.06 847 25.01 19.8 67.6 28 0.9 33.6
11:40 1018 30.06 847 25.01 20.8 69.4 27 1.3 34.3
11:45 1018 30.06 847 25.01 21.5 70.6 28 2.3 36.2
11:50 1018 30.06 847 25.01 21.6 70.8 25 0.9 33.5
11:55 1018 30.06 847 25.01 21.3 70.3 24 0.1 32.3
12:00 1018 30.06 847 25.01 20.7 69.2 29 2.1 35.8
12:05 1018 30.06 847 25.01 21.4 70.5 27 1.6 34.9
12:10 1018 30.06 847 25.01 22.1 71.8 27 2.6 36.7
12:15 1018 30.06 847 25.01 21.7 71.1 28 2.6 36.6
12:20 1018 30.06 847 25.01 21.7 71.1 27 2.4 36.3
12:25 1018 30.06 847 25.01 21.4 70.5 29 2.7 36.8
12:30 1018 30.06 847 25.01 22 71.6 28 2.7 36.8
12:35 1018 30.06 847 25.01 22.7 72.9 26 2.4 36.3
12:40 1018 30.06 847 25.01 22.2 72 27 2.7 36.8
12:45 1018 30.06 847 25.01 22.3 72.1 25 1.4 34.5
12:50 1018 30.06 847 25.01 22.2 72 26 1.9 35.5
12:55 1017 30.03 847 25.01 21.2 70.1 28 2 35.6
13:00 1017 30.03 847 25.01 20.9 69.6 31 3.4 38.1
13:05 1017 30.03 847 25.01 20.8 69.5 33 4.3 39.7
13:10 1017 30.03 847 25.01 21.6 71 29 2.9 37.3
13:15 1017 30.03 846 24.98 22.2 72 28 3.1 37.5
13:20 1017 30.03 846 24.98 22.4 72.3 26 2.1 35.8
13:25 1017 30.03 846 24.98 21.2 70.2 27 1.6 35
13:30 1017 30.03 846 24.98 21.7 71.1 27 2.4 36.2
13:35 1017 30.03 846 24.98 21.6 70.9 27 2 35.6
13:40 1017 30.03 846 24.98 22.5 72.4 25 1.8 35.3
13:45 1017 30.03 846 24.98 23 73.3 25 1.9 35.3
13:50 1017 30.03 846 24.98 22 71.7 27 2.2 35.9
13:55 1017 30.03 846 24.98 23 73.5 23 1.1 34
14:00 1017 30.03 846 24.98 24 75.2 24 2.4 36.2
14:05 1017 30.03 846 24.98 23.3 73.9 24 1.6 34.8
14:10 1017 30.03 846 24.98 24.2 75.5 24 2.8 37
14:15 1017 30.03 846 24.98 24.6 76.4 23 2.3 36.2
14:20 1017 30.03 846 24.98 24.7 76.4 24 2.9 37.2
14:25 1017 30.03 846 24.98 24.6 76.4 27 4.5 40.1
14:30 1016 30 846 24.98 23.4 74.1 27 3.5 38.3
14:35 1016 30 846 24.98 24.2 75.6 25 3.4 38.2
14:40 1016 30 846 24.98 24.4 75.9 26 3.9 39
14:45 1016 30 845 24.95 23.9 75 26 3.5 38.3
14:50 1016 30 845 24.95 24.1 75.3 26 3.4 38.2
14:55 1016 30 845 24.95 23.6 74.5 27 3.6 38.6
15:00 1016 30 845 24.95 24.2 75.6 26 3.8 38.8
15:05 1016 30 845 24.95 24.6 76.2 25 3.2 37.8
15:10 1016 30 845 24.95 25.3 77.6 25 3.9 38.9
15:15 1016 30 845 24.95 25.4 77.8 25 4.4 39.9
15:20 1016 30 845 24.95 24.8 76.6 25 3.5 38.2
15:25 1016 30 845 24.95 25.6 78 24 3.5 38.4
15:30 1016 30 845 24.95 24.7 76.4 26 4.2 39.6
15:35 1016 30 845 24.95 24.7 76.5 26 4 39.2
15:40 1016 30 845 24.95 25.6 78.1 25 4.1 39.4
15:45 1016 30 845 24.95 26.4 79.4 24 4.3 39.8
15:50 1016 30 845 24.95 26.4 79.5 25 5.3 41.5
15:55 1016 30 845 24.95 25.8 78.5 25 4.5 40.2
16:00 1016 30 845 24.95 25.8 78.4 26 4.8 40.7
16:05 1016 30 845 24.95 25.7 78.3 24 4 39.1
16:10 1016 30 845 24.95 25.4 77.7 25 4.4 39.9
16:15 1016 30 845 24.95 25.7 78.2 25 4.7 40.4
16:20 1016 30 845 24.95 26.1 79 25 4.8 40.6
16:25 1015 29.97 845 24.95 26.3 79.3 25 5.1 41.3
16:30 1015 29.97 845 24.95 25.8 78.5 24 4.3 39.7
16:35 1015 29.97 844 24.92 25.6 78 26 4.6 40.3
16:40 1015 29.97 844 24.92 25.8 78.4 25 4.6 40.4
16:45 1015 29.97 844 24.92 26.2 79.1 24 4.6 40.2
16:50 1015 29.97 844 24.92 25.6 78.1 26 4.8 40.6
16:55 1015 29.97 844 24.92 25.9 78.7 24 4.3 39.7
17:00 1015 29.97 844 24.92 26.6 79.9 24 4.8 40.6
17:05 1015 29.97 844 24.92 26.7 80 25 5.5 41.9
17:10 1015 29.97 844 24.92 25.7 78.3 25 4.6 40.3
17:15 1015 29.97 844 24.92 26 78.8 24 4.4 40
17:20 1015 29.97 844 24.92 26.7 80.1 25 5.2 41.4
17:25 1015 29.97 844 24.92 27 80.7 24 5.2 41.3
17:30 1015 29.97 844 24.92 27 80.7 24 4.8 40.6
17:35 1015 29.97 844 24.92 26.6 79.9 26 5.5 42
17:40 1015 29.97 844 24.92 26.2 79.2 25 4.7 40.5
17:45 1015 29.97 844 24.92 26.7 80.1 24 5 41.1
17:50 1015 29.97 844 24.92 26 78.9 24 4.4 39.9
17:55 1015 29.97 844 24.92 26.4 79.5 25 5.2 41.4
18:00 1015 29.97 844 24.92 26.1 79 24 4.5 40.1
18:05 1015 29.97 844 24.92 25.5 77.9 25 4.1 39.5
18:10 1015 29.97 844 24.92 25.6 78.1 26 4.7 40.4
18:15 1015 29.97 844 24.92 26.6 79.8 23 4.1 39.4
18:20 1014 29.94 844 24.92 27 80.6 24 5 41
18:25 1014 29.94 844 24.92 26.6 79.9 23 4 39.2
18:30 1014 29.94 844 24.92 27 80.6 22 4 39.2
18:35 1015 29.97 844 24.92 27 80.7 23 4.2 39.5
18:40 1014 29.94 844 24.92 26.3 79.3 23 4 39.2
18:45 1014 29.94 844 24.92 26.7 80 22 3.6 38.6
18:50 1014 29.94 844 24.92 27.1 80.7 22 3.9 39
18:55 1014 29.94 843 24.89 26.8 80.2 22 3.7 38.7
19:00 1014 29.94 843 24.89 26.3 79.3 23 4 39.2
19:05 1014 29.94 843 24.89 25.9 78.7 23 3.3 37.9
19:10 1014 29.94 843 24.89 26.1 78.9 23 3.9 39
19:15 1014 29.94 843 24.89 25.5 77.9 24 3.6 38.5
19:20 1014 29.94 843 24.89 25.6 78.1 23 3.3 37.9
19:25 1014 29.94 843 24.89 25.8 78.5 23 3.5 38.2
19:30 1014 29.94 843 24.89 25.7 78.2 24 3.7 38.7
19:35 1014 29.94 843 24.89 25.6 78.1 26 4.8 40.6
19:40 1014 29.94 843 24.89 25.7 78.3 25 4.5 40.1
19:45 1014 29.94 843 24.89 25.5 77.8 25 4.4 39.9
19:50 1014 29.94 843 24.89 25.2 77.3 24 3.7 38.7
19:55 1014 29.94 843 24.89 25.1 77.2 27 4.9 40.7
20:00 1014 29.94 843 24.89 24.9 76.8 32 7.1 44.7
20:05 1014 29.94 843 24.89 24.5 76.1 30 6.1 43.1
20:10 1014 29.94 843 24.89 24.3 75.7 32 6.9 44.4
20:15 1014 29.94 843 24.89 24.1 75.3 35 7.7 45.9
20:20 1014 29.94 843 24.89 23.8 74.9 37 8.3 47
20:25 1014 29.94 843 24.89 23.6 74.5 34 7 44.6
20:30 1014 29.94 843 24.89 23.5 74.3 32 6.3 43.3
20:35 1014 29.94 843 24.89 23.6 74.4 29 4.9 40.9
20:40 1014 29.94 843 24.89 23.7 74.6 35 7.4 45.2
20:45 1014 29.94 843 24.89 23.4 74.1 37 8.3 46.9
20:50 1014 29.94 843 24.89 22.9 73.2 40 8.7 47.6
20:55 1014 29.94 843 24.89 22.6 72.7 39 8.2 46.8
21:00 1014 29.94 843 24.89 22.4 72.4 39 8.1 46.7
21:05 1014 29.94 843 24.89 22.2 71.9 40 8.2 46.7
21:10 1014 29.94 843 24.89 21.8 71.2 42 8.5 47.2
21:15 1014 29.94 843 24.89 21.5 70.6 44 8.9 48
21:20 1014 29.94 843 24.89 21.3 70.3 45 9 48.2
21:25 1014 29.94 843 24.89 21.2 70.2 46 9.2 48.6
21:30 1014 29.94 843 24.89 21 69.8 47 9.5 49
21:35 1014 29.94 843 24.89 20.9 69.7 48 9.5 49.1
21:40 1014 29.94 843 24.89 20.8 69.4 48 9.6 49.2
21:45 1014 29.94 843 24.89 20.5 69 49 9.6 49.4
21:50 1014 29.94 843 24.89 20.4 68.8 49 9.4 49
21:55 1014 29.94 843 24.89 20.5 68.9 48 9.3 48.7
22:00 1014 29.94 843 24.89 20.5 68.8 48 9.4 48.9
22:05 1014 29.94 843 24.89 20.4 68.7 48 9.2 48.6
22:10 1014 29.94 843 24.89 20.4 68.7 48 9.2 48.5
22:15 1014 29.94 843 24.89 20.5 68.9 47 9.1 48.3
22:20 1014 29.94 843 24.89 20.5 68.9 47 9 48.2
22:25 1014 29.94 843 24.89 20.5 68.9 48 9.1 48.4
22:30 1014 29.94 843 24.89 20.4 68.7 48 9.2 48.6
22:35 1014 29.94 843 24.89 20.3 68.5 49 9.3 48.7
22:40 1014 29.94 843 24.89 20.2 68.3 49 9.3 48.7
22:45 1014 29.94 843 24.89 20.1 68.1 49 9.3 48.7
22:50 1014 29.94 843 24.89 20 68 49 9 48.2
22:55 1014 29.94 843 24.89 19.9 67.8 49 9 48.1
23:00 1014 29.94 843 24.89 19.8 67.6 47 8.4 47.1
23:05 1014 29.94 843 24.89 19.8 67.6 48 8.8 47.8
23:10 1014 29.94 844 24.92 19.7 67.4 49 8.7 47.6
23:15 1014 29.94 844 24.92 19.6 67.2 49 8.6 47.5
23:20 1014 29.94 844 24.92 19.4 67 49 8.4 47.2
23:25 1014 29.94 843 24.89 19.5 67 49 8.6 47.4
23:30 1014 29.94 844 24.92 19.4 66.9 49 8.6 47.6
23:35 1014 29.94 844 24.92 19.2 66.6 51 8.9 48
23:40 1014 29.94 844 24.92 18.8 65.9 52 8.8 47.9
23:45 1014 29.94 844 24.92 18.5 65.4 52 8.7 47.7
23:50 1014 29.94 844 24.92 18.4 65.2 52 8.6 47.5
23:55 1014 29.94 844 24.92 18.6 65.5 51 8.5 47.3
24:00 1014 29.94 844 24.92 18.8 65.8 52 8.8 47.8